Location: Crescent
(42.8242°N, 73.7329°W)
Time: 00:42:58
(UTC+00:00)

Transit 4A - Pass Details

Date: 16 February 2026
Orbit: 864 x 977 km, 66.8° (Epoch: 9 March)

Event Time Altitude Azimuth Distance (km) Brightness Sun altitude
Rises 16:01:44 0° 335° (NNW) 3,589 10.4 32.9°
Reaches altitude 10° 16:04:56 10° 351° (N) 2,663 9.9 33.1°
Maximum altitude 16:09:33 21° 40° (NE) 1,996 9.6 33.3°
Drops below altitude 10° 16:14:14 10° 88° (E) 2,704 10.6 33.6°
Sets 16:17:30 0° 104° (ESE) 3,659 11.3 33.8°
